Tracking 19846 objects as of 19-Sep-2019
HD Live streaming from Space Station
objects crossing your sky now

DMSP 5D-2 F11 DEB

Track DMSP 5D-2 F11 DEB now!
10-day predictions


NORAD ID: 28332
Int'l Code: 1991-082AV
Perigee: 552.5 km
Apogee: 571.0 km
Inclination: 98.7 °
Period: 95.7 minutes
Semi major axis: 6932 km
RCS: 0.0108 m2 (small)
Launch date: November 28, 1991
Source: United States (US)
Launch site: AIR FORCE WESTERN TEST RANGE (AFWTR)

Note: This is SATELLITE DEBRIS
aabbcc
Your satellite tracking list
Your tracking list is empty




NASA's NSSDC Master Catalog

Two Line Element Set (TLE):
1 28332U 91082AV  19260.53257901  .00015162  00000-0  10992-2 0  9996
2 28332  98.7211 108.8996 0013351 272.7818  87.1876 15.03991055806141
Source of the keplerian elements: AFSPC